Regional Weather Roundup
Issued by NWS

Home | Current Version | Previous Version | Graphics & Text | Print | Product List | Glossary Off
Versions: 1 2 3 4 5 6 7 8 9 10 11 12 13 14 15 16 17 18 19 20 21 22 23 24 25 26 27 28 29 30 31 32 33 34 35 36 37 38 39 40 41 42 43 44 45 46 47 48 49 50

000
ASUS43 KDMX 230507
RWRIA

WEATHER ROUNDUP FOR IOWA
NATIONAL WEATHER SERVICE DES MOINES IA
1200 AM CDT SAT MAY 23 2015

NOTE: "FAIR" INDICATES FEW OR NO CLOUDS BELOW 12,000 FEET WITH NO
SIGNIFICANT WEATHER AND/OR OBSTRUCTIONS TO VISIBILITY.

* - THESE STATIONS ARE NOT NWS STATIONS...THUS NOT UNDER NWS
QUALITY CONTROL.  THEY ALSO DO NOT REPORT WEATHER SUCH
AS PRECIPITATION OR FOG.

IAZ001>003-012>014-020>022-031>034-043>046-230600-
   NORTHWEST IOWA

CITY           SKY/WX    TMP DP  RH WIND       PRES   REMARKS
CARROLL *      MOCLDY    59  46  63 S7        30.20F
CHEROKEE *     CLOUDY    57  48  72 S3        30.20F
DENISON *      CLOUDY    59  48  67 SE6       30.19S
LE MARS *      DRIZZLE   59  48  67 S5        30.21S
ORANGE CITY *  MOCLDY    61  43  51 S12       30.20S
SHELDON *      CLOUDY    57  45  62 CALM      30.19S
SIOUX CITY     CLOUDY    57  49  74 E7        30.18F
SPENCER        CLOUDY    56  48  74 NE3       30.21F
STORM LAKE *   MOCLDY    61  45  55 S15       30.22S
$$

IAZ055>058-069>071-079>083-090>094-230600-
   SOUTHWEST IOWA

CITY           SKY/WX    TMP DP  RH WIND       PRES   REMARKS
ATLANTIC *     CLOUDY    61  46  59 S7        30.21S
AUDUBON *      MOCLDY    57  52  82 CALM      30.22F
CLARINDA *     CLOUDY    54  52  94 CALM      30.23S
COUNCIL BLFS * CLOUDY    59  50  72 SE9       30.20F
CRESTON *      PTCLDY    57  48  72 S6        30.22S
HARLAN  *      CLOUDY    57  50  77 S3        30.24S
LAMONI           N/A     59  52  77 S5        30.22F
RED OAK *      MOCLDY    55  48  76 S5        30.21S
SHENANDOAH *   MOCLDY    59  50  72 SE7       30.21S
$$

IAZ047>049-059>061-072>074-084-230600-
   CENTRAL IOWA

CITY           SKY/WX    TMP DP  RH WIND       PRES   REMARKS
AMES           CLOUDY    58  49  72 CALM      30.22S
ANKENY *       PTCLDY    57  48  72 CALM      30.21S
CHARITON *     CLEAR     55  50  82 S3        30.22F
DES MOINES     MOCLDY    61  48  62 S3        30.21F
GRINNELL*      CLOUDY    59  48  67 NW5       30.22F
KNOXVILLE *    MOCLDY    57  48  72 S5        30.21S
MARSHALLTOWN   CLOUDY    60  49  66 NW5       30.22S
PELLA *        MOCLDY    58  53  83 CALM      30.23S
PERRY *        CLOUDY    59  48  67 S5        30.21F
$$

IAZ004>006-015-016-023>025-035-036-230600-
   NORTH CENTRAL IOWA

CITY           SKY/WX    TMP DP  RH WIND       PRES   REMARKS
ALGONA *       CLEAR     59  46  63 CALM      30.22S
CLARION *      PTCLDY    59  46  63 CALM      30.22F
ESTHERVILLE    MOCLDY    57  42  57 W5        30.21F
FORT DODGE *   CLOUDY    55  46  71 CALM      30.22S
MASON CITY       N/A     60  45  57 W13       30.23R
FOREST CITY *  CLEAR     55  45  67 W6        30.22R
IOWA FALLS *     N/A     59  45  58 SW8       30.24R
$$

IAZ007>011-017>019-026>030-037>042-050>054-066-230600-
   NORTHEAST IOWA

CITY           SKY/WX    TMP DP  RH WIND       PRES   REMARKS
CEDAR RAPIDS   CLOUDY    61  47  59 SW6       30.22R
CHARLES CITY * CLOUDY    63  37  39 SE7       30.21S
CLINTON *      MOCLDY    59  39  47 E13       30.26S
DECORAH *      CLEAR     59  41  51 SE5       30.21S
DUBUQUE        MOCLDY    59  42  53 SE9       30.23F
MONTICELLO *   CLEAR     55  48  76 CALM      30.22S
OELWEIN *      CLOUDY    59  45  58 SE6       30.22S
WATERLOO       CLOUDY    60  45  57 S5        30.21R
$$

IAZ064-065-067-068-078-230600-
   EAST CENTRAL IOWA

CITY           SKY/WX    TMP DP  RH WIND       PRES   REMARKS
DAVENPORT      CLOUDY    61  44  53 E8        30.23F
IOWA CITY      CLOUDY    63  47  55 CALM      30.24S
MT. PLEASANT * CLOUDY    61  54  77 CALM      30.23F
MUSCATINE *    CLOUDY    64  50  59 W7        30.23S
QUAD CITIES    CLOUDY    59  47  64 E6        30.22S
$$

IAZ062-063-075>077-085>089-095>099-230600-
   SOUTHEAST IOWA

CITY           SKY/WX    TMP DP  RH WIND       PRES   REMARKS
BURLINGTON     CLOUDY    64  54  69 CALM      30.23S
FAIRFIELD *    CLOUDY    63  52  67 S3        30.23F
FORT MADISON * MOCLDY    63  55  77 CALM      30.24S
KEOKUK *       CLOUDY    59  55  88 CALM      30.23S
OSKALOOSA *      N/A     59  50  72 CALM      30.23S
CENTERVILLE *  CLEAR     54  54 100 CALM      30.24F
OTTUMWA        PTCLDY    56  51  84 S5        30.22F
WASHINGTON *   MOCLDY    63  54  72 SW5       30.24F
$$

ABBREVIATIONS USED IN REMARKS
   TC - TEMPERATURES IN CELSIUS
  WCI - WIND CHILL INDEX
   HX - HEAT INDEX
  VSB - VISIBILITY
$$




USA.gov is the U.S. government's official web portal to all federal, state and local government web resources and services.